Nantucket, MA

5:46 AM EDT on September 26, 2017 (GMT -0400)
Nantucket Memorial

Weather History for KACK - June, 2011

Change the Weather History Date:

Friday, June 10, 2011

  Actual Average Record
Temperature  
Mean Temperature 65 °F -  
Max Temperature 73 °F 67 °F 81 °F (1973)
Min Temperature 57 °F 52 °F 41 °F (1975)
Growing Degree Days 15 (Base 50)    
Moisture  
Dew Point 60 °F    
Average Humidity 82    
Maximum Humidity 93    
Minimum Humidity 73    
Precipitation  
Precipitation 0.00 in - - ()
Sea Level Pressure  
Sea Level Pressure 29.95 in    
Wind  
Wind Speed 13 mph (North)    
Max Wind Speed 21 mph    
Max Gust Speed 23 mph    
Visibility 10 miles    
Events      
Averages and records for this station are not official NWS values.
T = Trace of Precipitation, MM = Missing Value Source: NWS Daily Summary

Daily Weather History Graph

Daily Weather History Graph

Search for Another Location

Airport or City:

Trip Planner

Search our weather history database for the weather conditions in past years. The results will help you decide how hot, cold, wet, or windy it might be!

Date:

Astronomy

Jun. 10, 2011 Rise Set
Actual Time 5:06 AM EDT 8:12 PM EDT
Civil Twilight 4:33 AM EDT 8:46 PM EDT
Nautical Twilight 3:50 AM EDT 9:29 PM EDT
Astronomical Twilight 2:59 AM EDT 10:20 PM EDT
Moon 2:36 PM EDT (6/10) 1:10 AM EDT (6/10)
Length of Visible Light 16h 12m
Length of Day
15h 05m
Waxing Gibbous, 68% of the Moon is Illuminated
Jun 10
Waxing Gibbous
Jun 15
Full
Jun 23
Last Quarter
Jul 1
New
Jul 8
First Quarter

Hourly Weather History & Observations

Time (EDT) Temp. Dew Point Humidity Pressure Visibility Wind Dir Wind Speed Gust Speed Precip Events Conditions
12:53 AM 68.0 °F 60.1 °F 76% 29.81 in 10.0 mi West 15.0 mph 23.0 mph N/A   Clear
1:53 AM 66.9 °F 61.0 °F 81% 29.81 in 10.0 mi WNW 13.8 mph 19.6 mph N/A   Clear
2:53 AM 68.0 °F 62.1 °F 81% 29.81 in 10.0 mi WNW 13.8 mph - N/A   Clear
3:53 AM 66.9 °F 62.1 °F 84% 29.81 in 10.0 mi NW 9.2 mph - N/A   Clear
4:53 AM 62.1 °F 59.0 °F 90% 29.85 in 8.0 mi West 12.7 mph - N/A   Clear
5:53 AM 64.0 °F 62.1 °F 93% 29.86 in 8.0 mi West 6.9 mph - N/A   Clear
6:53 AM 64.9 °F 63.0 °F 93% 29.88 in 9.0 mi WNW 10.4 mph - N/A   Clear
7:53 AM 69.1 °F 64.0 °F 84% 29.90 in 10.0 mi NW 11.5 mph - N/A   Clear
8:53 AM 72.0 °F 64.9 °F 78% 29.92 in 10.0 mi NW 12.7 mph 19.6 mph N/A   Clear
9:53 AM 73.9 °F 64.9 °F 73% 29.91 in 10.0 mi NNW 13.8 mph - N/A   Clear
10:53 AM 73.9 °F 64.9 °F 73% 29.93 in 10.0 mi NNW 17.3 mph - N/A   Clear
11:53 AM 73.0 °F 64.0 °F 73% 29.95 in 10.0 mi North 19.6 mph - N/A   Partly Cloudy
12:08 PM 69.8 °F 62.6 °F 78% 29.96 in 10.0 mi NNE 19.6 mph - N/A   Mostly Cloudy
12:15 PM 69.8 °F 62.6 °F 78% 29.96 in 10.0 mi North 18.4 mph - N/A   Mostly Cloudy
12:40 PM 69.8 °F 62.6 °F 78% 29.96 in 10.0 mi NNE 17.3 mph - N/A   Overcast
12:53 PM 69.1 °F 62.1 °F 78% 29.96 in 10.0 mi NNE 20.7 mph - N/A   Overcast
1:35 PM 69.8 °F 62.6 °F 78% 29.97 in 10.0 mi NE 17.3 mph - N/A   Overcast
1:53 PM 70.0 °F 62.1 °F 76% 29.96 in 10.0 mi NE 15.0 mph - N/A   Overcast
2:53 PM 66.9 °F 60.1 °F 79% 29.99 in 10.0 mi NE 12.7 mph - N/A   Overcast
3:53 PM 66.0 °F 60.1 °F 81% 29.99 in 10.0 mi NE 10.4 mph - N/A   Overcast
4:53 PM 64.0 °F 57.9 °F 80% 30.00 in 10.0 mi ENE 11.5 mph - N/A   Overcast
5:53 PM 63.0 °F 57.0 °F 81% 30.01 in 10.0 mi ENE 10.4 mph - N/A   Overcast
6:53 PM 61.0 °F 55.9 °F 83% 30.02 in 10.0 mi ENE 6.9 mph - N/A   Overcast
7:53 PM 59.0 °F 55.0 °F 87% 30.02 in 10.0 mi East 6.9 mph - N/A   Partly Cloudy
8:53 PM 57.0 °F 54.0 °F 89% 30.04 in 10.0 mi East 5.8 mph - N/A   Mostly Cloudy
9:53 PM 57.0 °F 54.0 °F 89% 30.06 in 10.0 mi Calm Calm - N/A   Mostly Cloudy
10:53 PM 57.0 °F 54.0 °F 89% 30.06 in 10.0 mi ESE 5.8 mph - N/A   Overcast
11:53 PM 59.0 °F 54.0 °F 83% 30.06 in 10.0 mi East 4.6 mph - N/A   Overcast